Weather Roundup
Issued by NWS

Home | Current Version | Previous Version | Graphics & Text | Print | Product List | Glossary Off
Versions: 1 2 3 4 5 6 7 8 9 10 11 12 13 14 15 16 17 18 19 20 21 22 23 24 25 26 27 28 29 30 31 32 33 34 35 36 37 38 39 40 41 42 43 44 45 46 47 48 49 50

400
NZUS93 KARX 260859
HRRWXR

CURRENT HOURLY OBSERVATIONS ACROSS
MUCH OF THE UPPER MISSISSIPPI VALLEY
NATIONAL WEATHER SERVICE LA CROSSE WI
400 AM CDT SUN MAR 26 2017


...SOUTHEAST MINNESOTA...


CITY           SKY/WX    TMP DP  RH WIND       PRES   REMARKS
ROCHESTER      FOG       34  34 100 NE9       29.91F VSB 1/2 WCI  27
ROCHESTER/MAYO CLOUDY    35  35 100 NE6       29.93S WCI  30
WINONA         CLOUDY    36  36 100 E5        29.95F WCI  32
AUSTIN         FOG       36  34  93 NE7       29.89F VSB 1   WCI  30
ALBERT LEA     FOG       36  36 100 NE12      29.89F VSB 1/2 WCI  27
DODGE CENTER   SNOW      34  34 100 NE8       29.91F VSB 1/2 WCI  27
PRESTON        CLOUDY    34  33  97 NE7       29.91F FOG     WCI  28
OWATONNA       CLOUDY    36  34  93 NE7       29.92F FOG     WCI  30
FARIBAULT      CLOUDY    36  36 100 NE6       29.93F WCI  31
$$

...ELSEWHERE IN MINNESOTA...


CITY           SKY/WX    TMP DP  RH WIND       PRES   REMARKS
MINNEAPOLIS    DRIZZLE   37  34  89 E9        29.95F WCI  30
INTNL FALLS    CLOUDY    31  27  85 SE5       30.03F WCI  26
DULUTH         CLOUDY    31  31 100 E10       30.00F FOG     WCI  22
RED WING       CLOUDY    36  34  93 E7        29.95F WCI  30
REDWOOD FALLS  CLOUDY    38  35  89 N3        29.94F FOG
MANKATO        CLOUDY    36  35  96 E7        29.93F WCI  30
WORTHINGTON    FOG       35  35 100 NE7       29.91F VSB 1/2 WCI  29
FAIRMONT       CLOUDY    36  35  96 NE8       29.91F WCI  30
$$

...SOUTHWEST WISCONSIN...


CITY           SKY/WX    TMP DP  RH WIND       PRES   REMARKS
LA CROSSE      LGT RAIN  38  36  92 NE5       29.93F WCI  34
PRAIRIE DU CHI CLOUDY    39  38  97 NE5       29.89F
BOSCOBEL       HVY RAIN  40  38  93 NE5       29.90F FOG
LONE ROCK      LGT RAIN  40  38  93 E8        29.91F FOG     WCI  34
PLATTEVILLE    CLOUDY    40  40 100 NE12      29.87F WCI  34
FORT MC COY    CLOUDY    35  34  99 E7        29.95F FOG     WCI  29
CAMP DOUGLAS   MIX PCPN  36  36 100 E6        29.94F FOG     WCI  31
MAUSTON-NEW LI DRIZZLE   36  36  98 E5        29.94F WCI  32
VIROQUA        CLOUDY    36  36 100 E10       29.90F WCI  28
WIS DELLS      CLOUDY    37  36  98 NE7       29.92F FOG     WCI  31
$$

...ELSEWHERE IN WISCONSIN...


CITY           SKY/WX    TMP DP  RH WIND       PRES   REMARKS
MILWAUKEE      LGT RAIN  39  38  96 NE12      29.94F FOG     WCI  32
MADISON        CLOUDY    40  39  97 NE8       29.90F WCI  34
GREEN BAY      CLOUDY    35  35 100 NE12      30.00F FOG     WCI  27
EAU CLAIRE     NOT AVBL
BLACK RVR FLS  DRIZZLE   35  35 100 NE6       29.96S WCI  30
MEDFORD        CLOUDY    32  31  98 E9        29.96F WCI  24
WAUSAU         CLOUDY    32  32 100 E10       29.97F WCI  24
WIS RAPIDS     CLOUDY    34  34 100 E7        29.97F FOG     WCI  28
MARSHFIELD     LGT RAIN  33  31  92 E10       29.95F FOG     WCI  25
RICE LAKE      DRIZZLE   35  34  96 CALM      30.00F
$$

...NORTHEAST IOWA...


CITY           SKY/WX    TMP DP  RH WIND       PRES   REMARKS
WATERLOO       CLOUDY    39  38  96 NE10      29.86F FOG     WCI  32
DUBUQUE        FOG       40  40 100 NE15      29.84F VSB 1/4 WCI  32
DECORAH        CLOUDY    37  36  93 VRB7      29.88S FOG     WCI  32
MASON CITY     FOG       37  36  96 NE9       29.89F VSB 3/4 WCI  30
CHARLES CITY   LGT RAIN  37  37 100 NE13      29.88S WCI  29
OELWEIN        CLOUDY    39  39 100 NE12      29.86S FOG     WCI  32
$$

...ELSEWHERE IN IOWA...


CITY           SKY/WX    TMP DP  RH WIND       PRES   REMARKS
DES MOINES     LGT RAIN  42  41  96 N8        29.84F FOG
IOWA CITY      CLOUDY    45  44  97 NE9       29.82F FOG
FORT DODGE     CLOUDY    37  36  93 N6        29.88S WCI  33
MARSHALLTOWN   CLOUDY    40  40 100 NE9       29.84F FOG     WCI  34
CEDAR RAPIDS   FOG       42  42 100 NE12      29.80F VSB 1/4
$$

...NORTHERN ILLINOIS...


CITY           SKY/WX    TMP DP  RH WIND       PRES   REMARKS
CHICAGO-OHARE  CLOUDY    47  45  93 NE6       29.88F FOG
CHICAGO-MIDWAY LGT RAIN  48  48 100 VRB6      29.88F FOG
MOLINE         FOG       49  47  93 E5        29.80F VSB 1/2
ROCKFORD       CLOUDY    47  44  90 E10       29.88F FOG
PEORIA         CLOUDY    56  54  93 S12       29.81S
$$

NOTE: "FAIR" INDICATES FEW OR NO CLOUDS BELOW 12,000 FEET WITH NO
SIGNIFICANT WEATHER AND/OR OBSTRUCTIONS TO VISIBILITY. WIND
SPEEDS ARE IN MILES-PER-HOUR.




USA.gov is the U.S. government's official web portal to all federal, state and local government web resources and services.